Location: Hradec Kralove
(50.2170°N, 15.8330°E)
Time: 08:18:29
(UTC+01:00)

X-37B - Visible Passes

Search period start: 07 December 2022 00:00
Search period end: 17 December 2022 00:00
Orbit: 277 x 277 km, 45.0° (Epoch: 01 November)

Date Brightness Start Highest point End Pass type
(mag) Time Alt. Az. Time Alt. Az. Time Alt. Az.
10 Dec 2.7 17:02:21 10° S 17:03:06 11° SSE 17:03:51 10° SE visible
11 Dec 2.5 17:02:05 10° SSW 17:03:36 15° SSE 17:05:07 10° ESE visible
11 Dec 3.6 18:35:15 10° WSW 18:35:21 11° SW 18:35:21 11° SW visible
12 Dec 2.2 17:02:17 10° SW 17:04:08 19° SSE 17:05:57 10° ESE visible
12 Dec 3.6 18:35:51 10° WSW 18:36:00 11° WSW 18:36:00 11° WSW visible
13 Dec 2.0 17:02:41 10° SW 17:04:41 22° S 17:06:37 10° ESE visible
13 Dec 3.7 18:36:31 10° WSW 18:36:40 11° WSW 18:36:40 11° WSW visible
14 Dec 1.9 17:03:10 10° SW 17:05:14 24° S 17:07:18 10° ESE visible
14 Dec 3.7 18:37:18 10° WSW 18:37:22 10° WSW 18:37:22 10° WSW visible
15 Dec 2.0 17:03:45 10° WSW 17:05:49 23° S 17:07:52 10° SE visible
16 Dec 2.2 17:04:24 10° WSW 17:06:22 21° S 17:08:21 10° SE visible
